Powrót do katalogu

STARLINK-36668

AktywnyŁącznośćVLEO
NORAD 68177·PAYLOAD·🇺🇸 United States

Wystrzelony Mar 14, 2026 z Vandenberg Space Force Base

Loading…

Następne Przeloty (najbliższe 24 godziny)

TLE

ŚwieżeSource: CelesTrak SupGP

Epoka: Sep 15, 2026, 03:40 UTC

1 68177C 26050L   26258.15326389 -.00008964  00000+0 -26508-3 0  2582
2 68177  53.1570 102.6192 0001371  89.4483  95.3437 15.34366449    18

Śledź STARLINK-36668 w czasie rzeczywistym z AllMySat

Download on the App Store